[[{"header":{"parameterUnit":"m.s-1","parameterCategory":2,"la1":30.2991,"la2":30.254,"lo1":-89.0895,"lo2":-89.0444,"dy":0.0017,"dx":0.0017,"nx":28,"ny":28,"refTime":"2024-06-08T03:00:00:Z","depth":"0","parameterNumber":2,"parameterNumberName":"U-component_of_CURRENTS"},"data":[0,0,0,0,0,0,0,0,0,0,0,0,0,0,0,0,0,0,0,0,0,0,0,0,0,0,0,0,0,0,0,0,0,0,0,0,0,0,0,0,0,0,0,0,0,0,0,0,0,0,0,0,0,0,0,0,0,0,0.3245,0.3246,0,0.3368,0.337,0.3371,0.3381,0.338,0.3379,0.3378,0.3525,0.353,0.3535,0,0,0,0,0,0,0,0,0,0,0,0,0,0.3107,0.3109,0.3245,0.3246,0.3248,0.3368,0.337,0.3371,0.3382,0.338,0.3379,0.3377,0.3524,0.353,0.3536,0,0,0,0,0,0,0,0,0,0,0,0,0,0.3191,0.3109,0.3244,0.3268,0.3272,0.3368,0.337,0.3372,0.3382,0.338,0.3378,0.3376,0.3522,0.3529,0.3537,0.3622,0,0,0.356,0.3563,0,0,0,0,0,0,0,0,0.3186,0.3196,0.3263,0.3267,0.3271,0.3358,0.3375,0.3457,0.3382,0.3339,0.3378,0.3375,0.3474,0.3485,0.3511,0.3628,0.3635,0.3561,0.3565,0.3569,0.3571,0,0,0,0,0,0,0,0.318,0.3191,0.3293,0.3265,0.327,0.3303,0.3312,0.3391,0.3415,0.3343,0.3344,0.336,0.3475,0.3504,0.3515,0.3637,0.356,0.3567,0.3572,0.3575,0.3843,0.3845,0,0,0,0,0,0,0.3165,0.3186,0.3289,0.3297,0.3224,0.3307,0.3317,0.3331,0.3414,0.3425,0.3361,0.336,0.3491,0.3506,0.352,0.3652,0.3569,0.3576,0.358,0.384,0.3843,0.3846,0,0,0,0,0,0,0.3161,0.3173,0.3284,0.3244,0.3261,0.3311,0.3327,0.3335,0.3364,0.3428,0.3438,0.3382,0.3491,0.3509,0.3617,0.3656,0.3579,0.3586,0.3837,0.3841,0.3845,0.3899,0,0,0,0,0,0,0.3157,0.3171,0.3181,0.3243,0.3263,0.3355,0.3329,0.3339,0.3377,0.3376,0.345,0.3461,0.349,0.3606,0.3625,0.3666,0.3592,0.3834,0.3839,0.3843,0.3894,0.3905,0.3913,0,0,0,0,0,0.3151,0.3178,0.318,0.3193,0.3273,0.3357,0.3372,0.3399,0.3379,0.3413,0.3468,0.3459,0.3648,0.3616,0.3637,0.368,0.3832,0.3838,0.3843,0.389,0.3903,0.3913,0,0,0,0,0,0,0.3139,0.3183,0.3187,0.3229,0.3292,0.3359,0.3394,0.3407,0.3476,0.3472,0.3514,0.3533,0.3639,0.3659,0.3622,0.377,0.373,0.374,0.3759,0.3771,0.378,0.3727,0.3598,0,0,0,0,0,0.3137,0.3158,0.3221,0.3258,0.3287,0.3339,0.3375,0.3397,0.3463,0.3488,0.3552,0.3612,0.3683,0.3723,0.3796,0.3891,0.3918,0.3926,0.3935,0.3943,0.3915,0.4,0.4014,0.3865,0.3865,0.3864,0,0,0.3141,0.3171,0.3182,0.3255,0.3301,0.3373,0.3357,0.3421,0.3482,0.3499,0.3614,0.3663,0.3719,0.3824,0.387,0.3843,0.4014,0.395,0.3956,0.3923,0.4008,0.4022,0.4035,0.3868,0.3868,0.3867,0,0,0.3183,0.3191,0.3232,0.3288,0.3361,0.3399,0.3417,0.3504,0.3539,0.3659,0.3674,0.3736,0.3877,0.3904,0.3935,0.4039,0.4068,0.4072,0.4075,0.416,0.4173,0.4183,0.429,0.431,0.4068,0.4069,0.4069,0,0.3188,0.3256,0.3265,0.3336,0.339,0.3411,0.3493,0.3541,0.3657,0.37,0.3704,0.3868,0.3903,0.3991,0.4012,0.4056,0.4123,0.4027,0.4171,0.4182,0.4192,0.4298,0.4319,0.4072,0.4072,0.4071,0.4071,0,0.3277,0.3335,0.3373,0.3457,0.3511,0.3589,0.365,0.3708,0.3749,0.3804,0.3915,0.3967,0.405,0.4071,0.4071,0.4156,0.4192,0.4181,0.4134,0.421,0.4318,0.4339,0.4077,0.4075,0.4074,0.4074,0,0,0.3294,0.3409,0.3424,0.3488,0.3584,0.3642,0.3726,0.3824,0.3874,0.3965,0.4054,0.4124,0.4127,0.4156,0.4165,0.42,0.4332,0.4211,0.4215,0.4304,0.4562,0.4533,0.4553,0.4363,0.4366,0.4368,0.4629,0,0.3375,0.352,0.3546,0.3684,0.3779,0.3801,0.3874,0.3946,0.4012,0.4106,0.4125,0.4222,0.4171,0.421,0.424,0.4318,0.4382,0.4264,0.4485,0.4491,0.4444,0.4572,0.4322,0.4527,0.4649,0.4652,0.4655,0,0.3475,0.3563,0.371,0.3816,0.3849,0.391,0.4008,0.4077,0.4166,0.4213,0.4274,0.4318,0.4385,0.4326,0.4478,0.442,0.4485,0.4524,0.4536,0.4485,0.4497,0.4463,0.456,0.4422,0.4687,0.4684,0.4682,0,0.3535,0.3675,0.379,0.3839,0.3957,0.3997,0.4039,0.4121,0.4178,0.4285,0.4354,0.4438,0.4519,0.4585,0.4661,0.4602,0.4839,0.4784,0.4823,0.4824,0.4633,0.4612,0.4593,0.4892,0.4891,0.489,0.489,0,0.3641,0.374,0.3821,0.3899,0.3993,0.4048,0.4134,0.4177,0.426,0.4329,0.4408,0.4496,0.4588,0.4727,0.4751,0.4876,0.4939,0.4843,0.4889,0.4653,0.4631,0.4516,0.4468,0.49,0.4898,0.4896,0.4894,0,0.3724,0.3788,0.3915,0.4014,0.4038,0.4101,0.4168,0.4209,0.4303,0.4399,0.4444,0.4613,0.4791,0.4894,0.5052,0.5025,0.4978,0.5144,0.4872,0.4877,0.4714,0.468,0.4585,0.4459,0.522,0.5221,0.5222,0,0.3786,0.3871,0.3968,0.3992,0.4036,0.4116,0.4137,0.4219,0.426,0.4452,0.4495,0.4736,0.4851,0.5114,0.5127,0.523,0.5053,0.5052,0.4847,0.4689,0.4687,0.4507,0.4394,0.4656,0.4652,0.4649,0.4646,0,0.3875,0.3894,0.3949,0.401,0.404,0.4089,0.4138,0.4182,0.4268,0.4354,0.4489,0.4617,0.4884,0.4896,0.5069,0.5068,0.4775,0.4988,0.4881,0.4287,0.4033,0.3938,0.4536,0.4617,0.4619,0.4622,0.4623,0.4624,0.3868,0.3896,0.3922,0.3968,0.3991,0.401,0.3992,0.4053,0.4105,0.4165,0.4387,0.4471,0.4606,0.4806,0.4804,0.4623,0.4639,0.4425,0.4425,0.428,0.4033,0.4585,0.4672,0.4675,0.4678,0.468,0.4682,0,0.3806,0.3824,0.3867,0.3865,0.383,0.3898,0.3919,0.3857,0.3837,0.3978,0.4065,0.4157,0.4192,0.4263,0.4213,0.4066,0.3837,0.3938,0.3582,0.3521,0.4061,0.3905,0.3758,0.3758,0.3758,0.3758,0.3758,0.3758,0.3755,0.3738,0.376,0.3675,0.3669,0.3562,0.3537,0.3491,0.3527,0.3511,0.3527,0.3675,0.3855,0.3877,0.3717,0.3619,0.3344,0.3175,0.324,0.357,0.3612,0.3651,0.3489,0.3257,0.3257,0.2466,0.246,0.2456]},{"header":{"parameterUnit":"m.s-1","parameterCategory":2,"la1":30.2991,"la2":30.254,"lo1":-89.0895,"lo2":-89.0444,"dy":0.0017,"dx":0.0017,"nx":28,"ny":28,"refTime":"2024-06-08T03:00:00:Z","depth":"0","parameterNumber":3,"parameterNumberName":"V-component_of_CURRENTS"},"data":[0,0,0,0,0,0,0,0,0,0,0,0,0,0,0,0,0,0,0,0,0,0,0,0,0,0,0,0,0,0,0,0,0,0,0,0,0,0,0,0,0,0,0,0,0,0,0,0,0,0,0,0,0,0,0,0,0,0,0.0192,0.0191,0,0.0123,0.0122,0.0121,0.0082,0.0083,0.0083,0.0083,-0.0048,-0.0051,-0.0055,0,0,0,0,0,0,0,0,0,0,0,0,0,0.0204,0.0204,0.0192,0.0191,0.0191,0.0124,0.0122,0.0121,0.0082,0.0083,0.0083,0.0083,-0.0047,-0.0051,-0.0055,0,0,0,0,0,0,0,0,0,0,0,0,0,0.0171,0.0204,0.0192,0.0166,0.0163,0.0124,0.0122,0.0121,0.0082,0.0083,0.0083,0.0083,-0.0045,-0.0051,-0.0056,-0.0095,0,0,-0.0073,-0.0075,0,0,0,0,0,0,0,0,0.0173,0.017,0.017,0.0168,0.0164,0.0115,0.0079,0.0047,0.0082,0.0109,0.0083,0.0083,0.0003,-0.0007,-0.0024,-0.0101,-0.0107,-0.0073,-0.0077,-0.0079,-0.008,0,0,0,0,0,0,0,0.0175,0.0172,0.0161,0.017,0.0166,0.0129,0.0125,0.0072,0.0052,0.0107,0.0105,0.0103,0.0,-0.0019,-0.0028,-0.0109,-0.0073,-0.0078,-0.0081,-0.0083,-0.0216,-0.0216,0,0,0,0,0,0,0.0195,0.0175,0.0164,0.016,0.0173,0.0129,0.0124,0.0128,0.0053,0.0044,0.0103,0.0101,-0.0009,-0.0021,-0.0032,-0.0059,-0.0079,-0.0084,-0.0087,-0.0215,-0.0216,-0.0216,0,0,0,0,0,0,0.0195,0.0195,0.0166,0.0168,0.0162,0.013,0.0133,0.0126,0.011,0.0051,0.004,0.0094,-0.001,-0.0025,-0.0083,-0.0066,-0.0086,-0.0091,-0.0215,-0.0215,-0.0216,-0.0129,0,0,0,0,0,0,0.0196,0.0195,0.0201,0.017,0.0163,0.0145,0.0133,0.0125,0.0109,0.0107,0.004,0.0028,-0.0011,-0.0074,-0.0088,-0.0074,-0.0096,-0.0215,-0.0215,-0.0216,-0.0132,-0.0126,-0.0122,0,0,0,0,0,0.0197,0.0206,0.0202,0.0201,0.0174,0.0146,0.0138,0.0113,0.0109,0.0099,0.0052,0.003,-0.0086,-0.0079,-0.0095,-0.0082,-0.0215,-0.0215,-0.0216,-0.0134,-0.0127,-0.0122,0,0,0,0,0,0,0.0213,0.0203,0.0198,0.0203,0.0178,0.014,0.0132,0.0116,0.0072,0.0068,0.0015,-0.0001,-0.0047,-0.0082,-0.0073,-0.0123,-0.015,-0.0153,-0.0082,-0.0076,-0.0072,-0.0013,-0.01,0,0,0,0,0,0.0222,0.0228,0.0204,0.0208,0.0199,0.0166,0.0152,0.0134,0.0095,0.0077,0.0032,-0.0017,-0.0063,-0.0083,-0.0138,-0.0167,-0.0173,-0.0167,-0.0162,-0.0158,-0.0123,-0.0129,-0.012,-0.0218,-0.0218,-0.0218,0,0,0.0229,0.0225,0.0227,0.0212,0.0192,0.0189,0.0158,0.0138,0.0139,0.0067,0.0045,-0.0014,-0.0073,-0.0107,-0.0127,-0.013,-0.0136,-0.0158,-0.0154,-0.012,-0.0128,-0.0118,-0.0109,-0.0218,-0.0218,-0.0218,0,0,0.0253,0.0243,0.0258,0.0241,0.022,0.0201,0.02,0.0161,0.0146,0.0105,0.0064,0.0024,-0.0059,-0.0077,-0.01,-0.0102,-0.0122,-0.0127,-0.004,-0.0047,-0.0037,-0.0029,-0.0028,-0.002,-0.0109,-0.0109,-0.0109,0,0.0262,0.0286,0.0254,0.0262,0.0265,0.0214,0.0233,0.0203,0.0151,0.0155,0.0106,0.0027,-0.0035,-0.0033,-0.0035,-0.0086,-0.009,-0.0054,-0.0035,-0.0028,-0.0021,-0.0021,-0.0014,-0.0105,-0.0105,-0.0106,-0.0106,0,0.0299,0.0315,0.0319,0.0325,0.0315,0.0316,0.0285,0.0271,0.0241,0.022,0.0193,0.0106,0.0081,0.0042,-0.0002,0.0027,0.0006,-0.0038,-0.0039,-0.0005,-0.0009,-0.0003,-0.0099,-0.01,-0.0101,-0.0102,0,0,0.0335,0.0349,0.0351,0.0386,0.0355,0.0365,0.036,0.0366,0.0402,0.0318,0.0364,0.0261,0.0233,0.0206,0.015,0.014,0.0162,0.0086,0.0083,0.011,0.0162,0.0147,0.0151,0.0124,0.0125,0.0127,0.014,0,0.0382,0.0443,0.0421,0.0478,0.0516,0.0474,0.049,0.0482,0.0458,0.0479,0.0405,0.0405,0.0292,0.0296,0.0263,0.0196,0.0183,0.0164,0.0108,0.0107,0.0107,0.016,0.0145,0.0157,0.0146,0.0147,0.0147,0,0.0437,0.0479,0.0556,0.0609,0.0619,0.064,0.0694,0.0695,0.0692,0.0675,0.0655,0.0599,0.0584,0.0472,0.0391,0.0387,0.0292,0.022,0.0218,0.0188,0.0104,0.0118,0.0168,-0.0027,0.0157,0.0156,0.0155,0,0.0532,0.0578,0.0663,0.0673,0.071,0.0749,0.0765,0.0772,0.0812,0.0826,0.0868,0.08,0.0813,0.0676,0.052,0.0466,0.0431,0.0332,0.0227,0.0224,0.0197,0.0189,0.0076,0.0278,0.0278,0.0278,0.0277,0,0.0608,0.0673,0.0726,0.0773,0.0881,0.0864,0.0968,0.0967,0.1006,0.1095,0.0998,0.107,0.0868,0.0811,0.0615,0.047,0.0504,0.0276,0.0239,0.0223,0.0218,0.0033,-0.0073,0.0278,0.0278,0.0278,0.0278,0,0.0698,0.0724,0.0833,0.0905,0.0934,0.1017,0.1095,0.1165,0.1191,0.1312,0.1335,0.1311,0.1249,0.1034,0.085,0.0635,0.0354,0.0393,0.0395,0.0358,0.0047,-0.0053,-0.0179,-0.0261,0.0279,0.0279,0.0279,0,0.0755,0.0824,0.0942,0.1005,0.1042,0.1149,0.1217,0.1257,0.1339,0.147,0.1549,0.1551,0.1575,0.1305,0.0943,0.0632,0.0405,0.0381,0.0257,0.0065,-0.0074,-0.0167,-0.0235,0.0248,0.0247,0.0247,0.0247,0,0.0863,0.0906,0.0984,0.1114,0.121,0.1324,0.1433,0.1537,0.1615,0.1736,0.1897,0.1945,0.1722,0.1438,0.1011,0.075,0.0241,0.0365,0.0165,-0.0088,-0.0193,-0.0301,0.0203,0.0244,0.0244,0.0245,0.0245,0.0245,0.0937,0.1005,0.1098,0.1221,0.1332,0.1483,0.1597,0.1731,0.1908,0.2108,0.2144,0.224,0.1817,0.1255,0.0913,0.0243,0.0242,-0.0003,-0.0099,-0.0169,-0.0274,0.0239,0.0232,0.0232,0.0232,0.0232,0.0232,0,0.1011,0.107,0.1187,0.1333,0.1463,0.1512,0.172,0.1847,0.2076,0.2263,0.2406,0.224,0.1718,0.1143,0.0277,-0.0162,-0.0342,-0.0402,-0.0556,-0.0599,-0.0142,-0.0171,-0.0263,-0.0263,-0.0263,-0.0263,-0.0262,-0.0262,0.1045,0.1146,0.1201,0.1412,0.152,0.1708,0.1839,0.2043,0.2205,0.2423,0.2475,0.2498,0.2048,0.0597,-0.041,-0.0644,-0.0922,-0.0975,-0.1101,-0.0826,-0.0797,-0.077,-0.0824,-0.1051,-0.1052,-0.1533,-0.1538,-0.1541]}],[{"header":{"parameterUnit":"m.s-1","parameterCategory":2,"la1":30.2991,"la2":30.254,"lo1":-89.0895,"lo2":-89.0444,"dy":0.0017,"dx":0.0017,"nx":28,"ny":28,"refTime":"2024-06-08T03:00:00:Z","depth":"2","parameterNumber":2,"parameterNumberName":"U-component_of_CURRENTS"},"data":[0,0,0,0,0,0,0,0,0,0,0,0,0,0,0,0,0,0,0,0,0,0,0,0,0,0,0,0,0,0,0,0,0,0,0,0,0,0,0,0,0,0,0,0,0,0,0,0,0,0,0,0,0,0,0,0,0,0,0.2789,0.279,0,0.2803,0.2803,0.2802,0.2819,0.282,0.2821,0.2822,0.2868,0.2868,0.2868,0,0,0,0,0,0,0,0,0,0,0,0,0,0.2668,0.267,0.2789,0.279,0.2791,0.2803,0.2803,0.2802,0.2819,0.282,0.2821,0.2822,0.2867,0.2868,0.2868,0,0,0,0,0,0,0,0,0,0,0,0,0,0.2698,0.2671,0.2789,0.2806,0.2808,0.2803,0.2803,0.2802,0.2819,0.282,0.2822,0.2823,0.2867,0.2868,0.2868,0.2844,0,0,0.287,0.287,0,0,0,0,0,0,0,0,0.2697,0.2702,0.2803,0.2805,0.2808,0.2817,0.2777,0.282,0.2818,0.2807,0.2822,0.2824,0.2857,0.2859,0.2847,0.2846,0.2848,0.287,0.287,0.287,0.2871,0,0,0,0,0,0,0,0.2695,0.2701,0.2787,0.2804,0.2807,0.2776,0.2782,0.2784,0.2819,0.2808,0.2811,0.2824,0.2858,0.2847,0.2849,0.2848,0.287,0.287,0.2871,0.2871,0.2981,0.2984,0,0,0,0,0,0,0.2712,0.27,0.2787,0.2788,0.2763,0.2778,0.2785,0.2807,0.2819,0.2824,0.2823,0.2825,0.2845,0.2848,0.2851,0.3064,0.287,0.2871,0.2871,0.2979,0.2982,0.2985,0,0,0,0,0,0,0.271,0.272,0.2787,0.2749,0.2757,0.278,0.2804,0.2806,0.2807,0.2831,0.2835,0.2824,0.2846,0.285,0.2868,0.3057,0.2871,0.2872,0.2975,0.298,0.2983,0.3335,0,0,0,0,0,0,0.2706,0.2719,0.2737,0.2751,0.276,0.2777,0.2804,0.2806,0.2816,0.2818,0.2832,0.2837,0.2848,0.2867,0.2868,0.3054,0.2872,0.2972,0.2977,0.2982,0.332,0.3351,0.3377,0,0,0,0,0,0.2702,0.2722,0.2738,0.2748,0.2785,0.2777,0.2777,0.2793,0.2814,0.28,0.2829,0.2837,0.2902,0.2867,0.2869,0.306,0.297,0.2976,0.2981,0.3308,0.3345,0.3376,0,0,0,0,0,0,0.2688,0.2727,0.2744,0.2779,0.2777,0.2783,0.2791,0.2793,0.2801,0.2835,0.2836,0.2842,0.2985,0.29,0.2862,0.3092,0.2951,0.2957,0.3199,0.3233,0.3261,0.3161,0.2872,0,0,0,0,0,0.2693,0.2716,0.2735,0.2763,0.277,0.2778,0.2781,0.2802,0.2815,0.282,0.2823,0.2866,0.3003,0.3009,0.3074,0.3124,0.3052,0.3247,0.3276,0.3301,0.3213,0.3232,0.3256,0.3004,0.3004,0.3004,0,0,0.2689,0.2724,0.2732,0.276,0.2772,0.2802,0.2782,0.281,0.2893,0.2827,0.291,0.2981,0.3044,0.3191,0.3239,0.3137,0.3364,0.3308,0.3332,0.3226,0.3241,0.3266,0.3287,0.3008,0.3007,0.3006,0,0,0.2712,0.2734,0.2764,0.2787,0.2829,0.2825,0.2834,0.2844,0.2912,0.2992,0.3055,0.3146,0.3247,0.3333,0.341,0.3576,0.3555,0.3659,0.3687,0.3716,0.3736,0.3753,0.3833,0.3853,0.3625,0.3626,0.3626,0,0.2721,0.2797,0.2764,0.2826,0.2882,0.2842,0.2915,0.2963,0.2984,0.307,0.3061,0.3283,0.3331,0.3561,0.3644,0.3657,0.366,0.3594,0.3758,0.3771,0.3782,0.3858,0.3876,0.3643,0.3641,0.3639,0.3638,0,0.2779,0.2864,0.2891,0.2963,0.2972,0.3044,0.31,0.3134,0.321,0.328,0.3504,0.3546,0.364,0.3758,0.3767,0.3926,0.3914,0.3852,0.3687,0.383,0.3901,0.3914,0.3669,0.3662,0.3657,0.3653,0,0,0.2781,0.2917,0.2936,0.3024,0.3097,0.3104,0.3245,0.3366,0.346,0.3557,0.3709,0.3947,0.3914,0.3976,0.402,0.4014,0.4184,0.3948,0.3942,0.4053,0.4298,0.4167,0.4168,0.4173,0.4174,0.4175,0.4369,0,0.2876,0.3026,0.3072,0.3212,0.3296,0.3344,0.3434,0.3535,0.3646,0.3743,0.3899,0.4049,0.4035,0.41,0.4115,0.4151,0.4206,0.4136,0.4108,0.4106,0.3993,0.4171,0.3841,0.397,0.438,0.4382,0.4383,0,0.2954,0.3053,0.3223,0.3379,0.3412,0.3476,0.3609,0.3696,0.3848,0.3936,0.4069,0.4151,0.4253,0.4179,0.4277,0.4241,0.4273,0.4278,0.4286,0.3999,0.3991,0.3857,0.3975,0.4402,0.4401,0.4399,0.4398,0,0.2976,0.3174,0.3321,0.3389,0.351,0.3622,0.3667,0.378,0.3872,0.4034,0.4097,0.4236,0.4311,0.433,0.4378,0.4336,0.4448,0.4401,0.4342,0.4338,0.3945,0.39,0.446,0.446,0.4459,0.4459,0.4458,0,0.3104,0.3227,0.3356,0.3449,0.3589,0.3646,0.3796,0.3854,0.3947,0.4025,0.4163,0.4247,0.4335,0.444,0.4432,0.443,0.4517,0.4345,0.4359,0.4073,0.4039,0.426,0.4234,0.4466,0.4465,0.4463,0.4462,0,0.3163,0.3251,0.3416,0.357,0.3625,0.3712,0.3855,0.3907,0.3985,0.4083,0.4138,0.4301,0.4402,0.4511,0.4581,0.4507,0.451,0.451,0.4199,0.4166,0.4381,0.4371,0.4431,0.4427,0.4424,0.4422,0.442,0,0.3224,0.3343,0.3483,0.3543,0.3656,0.3792,0.3837,0.3923,0.3965,0.4098,0.4122,0.4318,0.4357,0.4454,0.4414,0.4421,0.4538,0.4126,0.3929,0.436,0.4369,0.4364,0.4358,0.3636,0.3628,0.3621,0.3616,0,0.3384,0.3426,0.3504,0.3576,0.3668,0.377,0.3871,0.3887,0.3933,0.3971,0.4006,0.4051,0.4179,0.4021,0.4079,0.4031,0.4068,0.3982,0.4525,0.3664,0.3616,0.3624,0.3643,0.3555,0.3561,0.3566,0.3569,0.3571,0.346,0.3495,0.352,0.3593,0.3658,0.3671,0.3674,0.3725,0.3699,0.3626,0.3783,0.3685,0.3724,0.3585,0.3508,0.3497,0.3742,0.3568,0.3587,0.3614,0.3455,0.34,0.3276,0.328,0.3284,0.3287,0.329,0,0.3459,0.3469,0.3537,0.3528,0.3504,0.3602,0.3591,0.3477,0.3358,0.3361,0.3309,0.2985,0.2894,0.2991,0.2846,0.2823,0.2783,0.2741,0.2662,0.2725,0.2781,0.2577,0.2167,0.2163,0.216,0.2156,0,0,0.3449,0.3394,0.3378,0.3316,0.3351,0.3278,0.3224,0.3013,0.2929,0.2696,0.2604,0.2733,0.2847,0.2445,0.2411,0.2268,0.2474,0.2188,0.3094,0.3062,0.3113,0.327,0.3028,0,0,0,0,0]},{"header":{"parameterUnit":"m.s-1","parameterCategory":2,"la1":30.2991,"la2":30.254,"lo1":-89.0895,"lo2":-89.0444,"dy":0.0017,"dx":0.0017,"nx":28,"ny":28,"refTime":"2024-06-08T03:00:00:Z","depth":"2","parameterNumber":3,"parameterNumberName":"V-component_of_CURRENTS"},"data":[0,0,0,0,0,0,0,0,0,0,0,0,0,0,0,0,0,0,0,0,0,0,0,0,0,0,0,0,0,0,0,0,0,0,0,0,0,0,0,0,0,0,0,0,0,0,0,0,0,0,0,0,0,0,0,0,0,0,0.0057,0.0056,0,-0.0003,-0.0003,-0.0004,-0.0041,-0.0041,-0.0041,-0.0041,-0.0134,-0.0137,-0.0139,0,0,0,0,0,0,0,0,0,0,0,0,0,0.0061,0.0061,0.0057,0.0056,0.0056,-0.0002,-0.0003,-0.0004,-0.0041,-0.0041,-0.0041,-0.0041,-0.0133,-0.0136,-0.0139,0,0,0,0,0,0,0,0,0,0,0,0,0,0.0035,0.0061,0.0057,0.0031,0.0029,-0.0002,-0.0003,-0.0005,-0.0041,-0.0041,-0.0041,-0.0041,-0.0132,-0.0136,-0.014,-0.016,0,0,-0.0151,-0.0152,0,0,0,0,0,0,0,0,0.0036,0.0034,0.0036,0.0033,0.003,-0.0013,-0.0036,-0.0058,-0.0041,-0.0016,-0.0041,-0.0041,-0.0096,-0.0102,-0.0115,-0.0165,-0.0169,-0.0151,-0.0153,-0.0155,-0.0156,0,0,0,0,0,0,0,0.0038,0.0036,0.0032,0.0035,0.0032,-0.0003,-0.0007,-0.0041,-0.0057,-0.0019,-0.0021,-0.0025,-0.0098,-0.0112,-0.0118,-0.017,-0.0151,-0.0154,-0.0156,-0.0158,-0.0219,-0.0219,0,0,0,0,0,0,0.0053,0.0038,0.0034,0.003,0.0035,-0.0003,-0.0007,-0.0001,-0.0056,-0.0063,-0.0025,-0.0026,-0.0105,-0.0113,-0.0121,-0.0154,-0.0155,-0.0158,-0.016,-0.022,-0.0219,-0.0219,0,0,0,0,0,0,0.0054,0.0054,0.0036,0.0033,0.0029,-0.0002,0.0005,-0.0002,-0.0015,-0.006,-0.0069,-0.0031,-0.0106,-0.0116,-0.0138,-0.0157,-0.016,-0.0163,-0.022,-0.022,-0.0219,-0.0216,0,0,0,0,0,0,0.0054,0.0054,0.0063,0.0035,0.003,0.0022,0.0005,-0.0003,-0.0016,-0.0019,-0.0068,-0.0077,-0.0107,-0.0132,-0.0142,-0.0162,-0.0166,-0.0221,-0.022,-0.0219,-0.0217,-0.0215,-0.0214,0,0,0,0,0,0.0055,0.0068,0.0065,0.0064,0.0044,0.0023,0.0016,-0.0008,-0.0016,-0.002,-0.0045,-0.0075,-0.0133,-0.0135,-0.0146,-0.0168,-0.0222,-0.022,-0.0219,-0.0217,-0.0215,-0.0214,0,0,0,0,0,0,0.0071,0.0065,0.006,0.0071,0.0051,0.0017,0.0014,-0.0004,-0.0028,-0.003,-0.0071,-0.0081,-0.0126,-0.0128,-0.0129,-0.0178,-0.0182,-0.0183,-0.0176,-0.0175,-0.0173,-0.0093,-0.0169,0,0,0,0,0,0.0081,0.0092,0.0073,0.008,0.0076,0.0046,0.0035,0.0016,-0.0008,-0.0019,-0.0053,-0.0083,-0.013,-0.0133,-0.0181,-0.0189,-0.0184,-0.0207,-0.0205,-0.0204,-0.0143,-0.0162,-0.0157,-0.0214,-0.0214,-0.0215,0,0,0.0087,0.0087,0.0091,0.0084,0.007,0.0075,0.0039,0.0025,0.0021,-0.0026,-0.0041,-0.01,-0.0138,-0.017,-0.0185,-0.0168,-0.0193,-0.0202,-0.0202,-0.0139,-0.016,-0.0155,-0.015,-0.0214,-0.0214,-0.0214,0,0,0.0108,0.0108,0.0126,0.0116,0.0102,0.009,0.009,0.0057,0.0035,0.0005,-0.0038,-0.0074,-0.0139,-0.0154,-0.0175,-0.0178,-0.0211,-0.0214,-0.0115,-0.0138,-0.0133,-0.0128,-0.015,-0.0148,-0.0182,-0.0182,-0.0182,0,0.0115,0.0143,0.0124,0.0137,0.0144,0.0106,0.0127,0.0096,0.0055,0.0056,0.0004,-0.0065,-0.0124,-0.0123,-0.0132,-0.0176,-0.0188,-0.0131,-0.0136,-0.0131,-0.0126,-0.015,-0.0147,-0.0182,-0.0182,-0.0182,-0.0182,0,0.015,0.0172,0.018,0.02,0.02,0.0207,0.0178,0.0168,0.013,0.0104,0.0064,-0.0011,-0.0022,-0.0082,-0.0113,-0.0101,-0.0125,-0.0164,-0.0141,-0.012,-0.0147,-0.0144,-0.0182,-0.0182,-0.0182,-0.0182,0,0,0.0173,0.0203,0.0207,0.0241,0.0237,0.025,0.0251,0.0258,0.0284,0.0202,0.0232,0.0124,0.0101,0.0084,0.0025,0.0013,-0.0014,-0.004,-0.0042,-0.0061,-0.0059,-0.0123,-0.0126,-0.0063,-0.0061,-0.006,-0.0104,0,0.0211,0.0272,0.0269,0.0331,0.0368,0.0349,0.0366,0.0362,0.0333,0.0344,0.0268,0.0251,0.0157,0.015,0.0119,0.0017,0.0003,0.0004,-0.0072,-0.0073,-0.0133,-0.0121,-0.0086,-0.0125,-0.0101,-0.0101,-0.0101,0,0.0257,0.0297,0.0372,0.0433,0.0448,0.048,0.0539,0.0539,0.0537,0.0509,0.0499,0.044,0.0418,0.0318,0.0209,0.0211,0.0107,0.0019,0.0013,-0.0024,-0.0129,-0.0134,-0.012,-0.0095,-0.0096,-0.0096,-0.0097,0,0.0318,0.0376,0.0453,0.0468,0.0521,0.0562,0.059,0.0606,0.0626,0.0642,0.0668,0.0611,0.0596,0.0465,0.0286,0.0251,0.0153,0.0071,-0.0078,-0.0085,-0.0048,-0.0054,0.0018,0.0018,0.0018,0.0018,0.0018,0,0.0375,0.043,0.0497,0.0537,0.0627,0.0644,0.0736,0.0739,0.0779,0.0843,0.0778,0.0817,0.0633,0.0547,0.036,0.0163,0.0209,-0.003,-0.0088,-0.0053,-0.0058,-0.0017,-0.002,0.0016,0.0016,0.0017,0.0017,0,0.0412,0.0462,0.0546,0.0628,0.066,0.0724,0.0814,0.0864,0.0909,0.0997,0.1017,0.0979,0.0876,0.0677,0.0469,0.0268,0.0073,-0.0007,0.0046,-0.0005,-0.0171,-0.0174,-0.0176,-0.0179,-0.0181,-0.0182,-0.0184,0,0.0428,0.0494,0.0597,0.0649,0.0687,0.0788,0.0842,0.0909,0.0972,0.1098,0.1139,0.1109,0.1069,0.0742,0.0427,0.0117,0.008,-0.0079,-0.0147,-0.0128,-0.0185,-0.0184,-0.0184,-0.0112,-0.0113,-0.0113,-0.0114,0,0.0468,0.0517,0.0566,0.0653,0.0737,0.0837,0.0938,0.1023,0.113,0.1257,0.1372,0.1367,0.109,0.0793,0.0373,0.0154,-0.0035,-0.0105,-0.0068,-0.0081,-0.0074,-0.0128,-0.0129,-0.0119,-0.0118,-0.0118,-0.0117,-0.0117,0.0469,0.0499,0.0566,0.0643,0.0747,0.087,0.0977,0.1128,0.13,0.1502,0.1489,0.1506,0.1172,0.0632,0.0282,-0.0074,-0.0075,-0.0228,-0.0222,-0.0217,-0.0214,-0.0213,-0.0282,-0.0282,-0.0283,-0.0283,-0.0283,0,0.0453,0.049,0.055,0.0649,0.0747,0.0847,0.1022,0.1171,0.1431,0.1574,0.1694,0.1378,0.1046,0.0679,0.0143,-0.0212,-0.0221,-0.0315,-0.0238,-0.0231,-0.0225,-0.022,-0.0291,-0.0292,-0.0293,-0.0294,0,0,0.0449,0.046,0.048,0.0616,0.0742,0.0943,0.1084,0.1312,0.1462,0.1656,0.1683,0.1613,0.1148,0.0757,0.0318,0.0022,-0.0031,-0.0044,-0.0002,0.0147,0.0157,-0.0142,-0.0123,0,0,0,0,0]}],[{"header":{"parameterUnit":"m.s-1","parameterCategory":2,"la1":30.2991,"la2":30.254,"lo1":-89.0895,"lo2":-89.0444,"dy":0.0017,"dx":0.0017,"nx":28,"ny":28,"refTime":"2024-06-08T03:00:00:Z","depth":"4","parameterNumber":2,"parameterNumberName":"U-component_of_CURRENTS"},"data":[0,0,0,0,0,0,0,0,0,0,0,0,0,0,0,0,0,0,0,0,0,0,0,0,0,0,0,0,0,0,0,0,0,0,0,0,0,0,0,0,0,0,0,0,0,0,0,0,0,0,0,0,0,0,0,0,0,0,0.1484,0.1484,0,0.1485,0.1485,0.1485,0.1556,0.1557,0.1559,0.1561,0.1549,0.1548,0.1546,0,0,0,0,0,0,0,0,0,0,0,0,0,0.1463,0.1463,0.1484,0.1484,0.1484,0.1485,0.1485,0.1485,0.1555,0.1558,0.156,0.1562,0.155,0.1548,0.1546,0,0,0,0,0,0,0,0,0,0,0,0,0,0.147,0.1464,0.1484,0.1518,0.1521,0.1485,0.1485,0.1485,0.1555,0.1558,0.156,0.1563,0.1551,0.1548,0.1545,0.1477,0,0,0.1537,0.1535,0,0,0,0,0,0,0,0,0.147,0.1471,0.1513,0.1515,0.1519,0.1521,0.1473,0.1481,0.1554,0.1544,0.1561,0.1564,0.1536,0.1534,0.1531,0.1476,0.1476,0.1536,0.1535,0.1533,0.1533,0,0,0,0,0,0,0,0.1469,0.1471,0.1486,0.1513,0.1516,0.1505,0.151,0.1475,0.1526,0.1545,0.155,0.1546,0.1538,0.1534,0.1532,0.1475,0.1536,0.1534,0.1532,0.1531,0.155,0.1552,0,0,0,0,0,0,0.1467,0.1471,0.1486,0.1486,0.1498,0.1503,0.1509,0.1519,0.1527,0.1531,0.1544,0.1549,0.1538,0.1535,0.1531,0.1548,0.1533,0.1531,0.1529,0.1548,0.1551,0.1553,0,0,0,0,0,0,0.1467,0.1469,0.1486,0.1476,0.1478,0.1502,0.1512,0.1518,0.1556,0.1526,0.1531,0.1582,0.1539,0.1535,0.1546,0.1545,0.1529,0.1527,0.1545,0.1549,0.1552,0.1519,0,0,0,0,0,0,0.1467,0.1469,0.1492,0.1476,0.1478,0.1483,0.151,0.1516,0.1547,0.1555,0.1558,0.1558,0.1541,0.155,0.1543,0.1541,0.1525,0.1543,0.1547,0.1551,0.1517,0.1521,0.1524,0,0,0,0,0,0.1466,0.1464,0.1493,0.1496,0.1504,0.1483,0.1483,0.1509,0.1546,0.1556,0.1577,0.156,0.1573,0.1549,0.154,0.1537,0.1541,0.1546,0.155,0.1516,0.152,0.1524,0,0,0,0,0,0,0.1464,0.147,0.1502,0.1506,0.1512,0.1495,0.1496,0.1526,0.1549,0.157,0.1563,0.1562,0.1573,0.1574,0.1548,0.1567,0.1563,0.1566,0.154,0.1544,0.1547,0.162,0.1522,0,0,0,0,0,0.1474,0.1481,0.1487,0.1494,0.1493,0.1509,0.1512,0.1536,0.1542,0.1558,0.1556,0.1573,0.1577,0.1579,0.1574,0.1565,0.1625,0.1573,0.1577,0.1579,0.164,0.1754,0.1773,0.1569,0.1569,0.1569,0,0,0.1472,0.1479,0.1484,0.1495,0.1497,0.1497,0.1518,0.1525,0.1542,0.1546,0.1564,0.157,0.1581,0.1579,0.1586,0.1583,0.1655,0.1585,0.1586,0.1648,0.1761,0.1781,0.1799,0.1573,0.1572,0.1572,0,0,0.1452,0.1479,0.1479,0.1467,0.148,0.1502,0.1516,0.152,0.1543,0.155,0.1575,0.1612,0.1581,0.1613,0.162,0.1649,0.1666,0.1633,0.1698,0.1804,0.1822,0.1839,0.1875,0.1895,0.1635,0.1635,0.1635,0,0.1458,0.1462,0.1474,0.1452,0.1456,0.151,0.1514,0.1526,0.1542,0.1584,0.1561,0.1623,0.161,0.1671,0.1683,0.1654,0.1703,0.1661,0.1808,0.1826,0.1844,0.1877,0.19,0.1634,0.1635,0.1635,0.1635,0,0.1425,0.1431,0.1414,0.1433,0.1444,0.1443,0.147,0.1524,0.1568,0.159,0.1655,0.165,0.1728,0.1693,0.1686,0.1804,0.1789,0.1788,0.179,0.1863,0.1892,0.1916,0.1633,0.1633,0.1634,0.1634,0,0,0.1433,0.1408,0.1408,0.1419,0.1437,0.145,0.1506,0.1589,0.1687,0.1674,0.1759,0.177,0.1825,0.1848,0.1845,0.1912,0.2025,0.1909,0.1915,0.1931,0.2228,0.2033,0.204,0.205,0.2056,0.206,0.2172,0,0.1422,0.1383,0.14,0.1413,0.1395,0.1479,0.1546,0.163,0.1705,0.1788,0.1814,0.1878,0.1861,0.191,0.1984,0.2048,0.2103,0.1994,0.2172,0.2178,0.1985,0.2068,0.2079,0.219,0.2196,0.22,0.2203,0,0.1396,0.1371,0.1376,0.1428,0.1446,0.1509,0.1697,0.1762,0.19,0.1961,0.2058,0.2055,0.2175,0.2113,0.231,0.2248,0.2264,0.2269,0.2274,0.2144,0.2032,0.2125,0.2248,0.2244,0.2241,0.2238,0.2235,0,0.1375,0.1371,0.1401,0.1391,0.1465,0.1568,0.1674,0.184,0.1921,0.2097,0.2166,0.229,0.2357,0.2449,0.2462,0.2426,0.2611,0.2565,0.2388,0.2371,0.2524,0.2506,0.269,0.269,0.269,0.2689,0.2689,0,0.1325,0.1332,0.1415,0.1402,0.1503,0.1593,0.1747,0.1905,0.2079,0.2168,0.2282,0.2332,0.2454,0.2514,0.2534,0.2548,0.2702,0.2441,0.2416,0.2494,0.2473,0.2536,0.2517,0.2694,0.2693,0.2692,0.2691,0,0.1219,0.1294,0.1311,0.1425,0.1478,0.1565,0.173,0.1822,0.2084,0.2207,0.2257,0.2417,0.2537,0.2583,0.2698,0.263,0.2654,0.259,0.2649,0.2618,0.2316,0.2295,0.2459,0.2454,0.2449,0.2445,0.2442,0,0.1138,0.1131,0.1264,0.1314,0.137,0.1484,0.1548,0.1793,0.1872,0.2209,0.2226,0.2394,0.2455,0.2492,0.2571,0.2612,0.2549,0.2551,0.2462,0.2349,0.2309,0.2293,0.2278,0.2435,0.2434,0.2433,0.2432,0,0.0934,0.1038,0.1075,0.1136,0.1236,0.1284,0.1408,0.1462,0.1761,0.1976,0.2149,0.2218,0.2311,0.2368,0.2401,0.2411,0.2572,0.2503,0.2512,0.2428,0.2322,0.2283,0.2273,0.2416,0.2418,0.242,0.2421,0,0.0811,0.0808,0.0899,0.0958,0.1045,0.1094,0.1178,0.1289,0.1435,0.1842,0.1856,0.2091,0.226,0.2258,0.2293,0.2302,0.2265,0.2196,0.222,0.2238,0.2111,0.194,0.1936,0,0,0,0,0,0.0651,0.0652,0.0675,0.0783,0.0844,0.0914,0.1073,0.1181,0.1446,0.1518,0.1724,0.1807,0.194,0.2022,0.1985,0.215,0.2234,0.2095,0.2155,0.233,0.2348,0.2215,0,0,0,0,0,0,0.0564,0.0594,0.0616,0.0598,0.0627,0.0698,0.0813,0.1014,0.107,0.1364,0.1417,0.1671,0.1773,0.1929,0.1937,0.1967,0.1965,0.2238,0.2233,0.232,0.2336,0.235,0.2221,0,0,0,0,0]},{"header":{"parameterUnit":"m.s-1","parameterCategory":2,"la1":30.2991,"la2":30.254,"lo1":-89.0895,"lo2":-89.0444,"dy":0.0017,"dx":0.0017,"nx":28,"ny":28,"refTime":"2024-06-08T03:00:00:Z","depth":"4","parameterNumber":3,"parameterNumberName":"V-component_of_CURRENTS"},"data":[0,0,0,0,0,0,0,0,0,0,0,0,0,0,0,0,0,0,0,0,0,0,0,0,0,0,0,0,0,0,0,0,0,0,0,0,0,0,0,0,0,0,0,0,0,0,0,0,0,0,0,0,0,0,0,0,0,0,0.0096,0.0096,0,0.0094,0.0094,0.0094,0.0066,0.0065,0.0064,0.0064,0.0072,0.0072,0.0073,0,0,0,0,0,0,0,0,0,0,0,0,0,0.0067,0.0067,0.0096,0.0096,0.0096,0.0094,0.0094,0.0094,0.0066,0.0065,0.0064,0.0063,0.0071,0.0072,0.0073,0,0,0,0,0,0,0,0,0,0,0,0,0,0.0073,0.0067,0.0096,0.0082,0.0081,0.0094,0.0094,0.0094,0.0066,0.0065,0.0064,0.0063,0.0071,0.0072,0.0074,0.0102,0,0,0.0077,0.0078,0,0,0,0,0,0,0,0,0.0073,0.0074,0.0084,0.0083,0.0082,0.0079,0.0086,0.0097,0.0066,0.0071,0.0064,0.0063,0.0076,0.0077,0.0078,0.0103,0.0103,0.0078,0.0078,0.0079,0.0079,0,0,0,0,0,0,0,0.0072,0.0074,0.0095,0.0084,0.0083,0.0073,0.0073,0.0088,0.008,0.0071,0.0069,0.0069,0.0075,0.0077,0.0078,0.0103,0.0078,0.0079,0.0079,0.008,0.016,0.0162,0,0,0,0,0,0,0.0075,0.0074,0.0095,0.0095,0.0075,0.0074,0.0074,0.0081,0.0079,0.0078,0.007,0.0068,0.0075,0.0077,0.0079,0.0138,0.0079,0.008,0.0081,0.0159,0.0161,0.0162,0,0,0,0,0,0,0.0075,0.0077,0.0095,0.0084,0.0086,0.0076,0.0084,0.0082,0.008,0.0079,0.0077,0.007,0.0075,0.0077,0.0106,0.0137,0.0081,0.0082,0.0157,0.016,0.0161,0.0241,0,0,0,0,0,0,0.0074,0.0077,0.0087,0.0085,0.0086,0.0112,0.0085,0.0082,0.0082,0.0079,0.0079,0.0078,0.0074,0.0104,0.0107,0.0138,0.0083,0.0156,0.0158,0.0161,0.0237,0.0246,0.0253,0,0,0,0,0,0.0073,0.0094,0.0088,0.009,0.0099,0.0113,0.0113,0.0102,0.0083,0.0093,0.0097,0.0078,0.0122,0.0107,0.011,0.0142,0.0154,0.0158,0.0161,0.0233,0.0244,0.0253,0,0,0,0,0,0,0.0084,0.0093,0.0086,0.0107,0.0112,0.0108,0.0122,0.0105,0.0115,0.0113,0.0102,0.0104,0.0141,0.013,0.0113,0.0171,0.0133,0.0137,0.0187,0.0197,0.0205,0.0175,0.0084,0,0,0,0,0,0.0093,0.0109,0.0112,0.0128,0.0137,0.0128,0.0132,0.0122,0.0128,0.0129,0.0131,0.0137,0.0158,0.0167,0.0182,0.0216,0.015,0.0236,0.0244,0.0251,0.0229,0.0142,0.0139,0.0172,0.0172,0.0172,0,0,0.0098,0.0107,0.0114,0.0132,0.0138,0.0162,0.0129,0.0142,0.0163,0.0132,0.017,0.017,0.0174,0.0217,0.0231,0.021,0.0216,0.0255,0.0261,0.0234,0.0145,0.0141,0.0138,0.0174,0.0174,0.0174,0,0,0.0123,0.0133,0.0157,0.0178,0.0192,0.0187,0.0192,0.0196,0.0203,0.0241,0.0223,0.0229,0.0274,0.0267,0.0275,0.0333,0.0264,0.0351,0.0368,0.0286,0.0281,0.0276,0.0218,0.0207,0.0352,0.0352,0.0352,0,0.0128,0.0164,0.0165,0.0206,0.0228,0.0202,0.0237,0.0249,0.0259,0.0261,0.0267,0.0281,0.0294,0.0307,0.034,0.035,0.0294,0.0334,0.0293,0.0287,0.028,0.0221,0.0208,0.0357,0.0356,0.0356,0.0355,0,0.0179,0.0214,0.0238,0.0277,0.0298,0.0327,0.0343,0.0353,0.0355,0.035,0.0365,0.0368,0.0359,0.0383,0.0392,0.0363,0.0337,0.0314,0.0262,0.0281,0.0219,0.0204,0.0363,0.0361,0.036,0.0359,0,0,0.0174,0.0253,0.0264,0.0302,0.0342,0.0363,0.0401,0.0414,0.0418,0.0428,0.0418,0.0462,0.042,0.0422,0.0412,0.0356,0.0297,0.0326,0.032,0.0258,0.0122,0.0129,0.0112,0.0259,0.0256,0.0254,0.0107,0,0.0211,0.03,0.0323,0.0398,0.0448,0.045,0.0482,0.0489,0.0491,0.0477,0.0446,0.0448,0.045,0.0444,0.0387,0.0324,0.0255,0.0339,0.012,0.0113,0.0108,0.0094,0.0245,0.0095,0.0092,0.0089,0.0087,0,0.0258,0.0313,0.0397,0.0466,0.0484,0.0516,0.0541,0.0568,0.0538,0.0534,0.0493,0.0458,0.0405,0.0389,0.0247,0.03,0.021,0.0147,0.0139,0.0095,0.0091,0.0064,0.0058,0.006,0.0062,0.0064,0.0066,0,0.027,0.0365,0.0429,0.0465,0.053,0.0556,0.0578,0.0578,0.0599,0.0552,0.0539,0.0451,0.0417,0.0284,0.0186,0.0203,0.0,0.0002,-0.0089,-0.0089,-0.0089,-0.0082,-0.0151,-0.0151,-0.0151,-0.015,-0.015,0,0.0312,0.0371,0.0444,0.049,0.056,0.0588,0.064,0.064,0.0621,0.0633,0.0563,0.0532,0.0384,0.0268,0.0155,-0.0004,-0.0032,-0.0107,-0.0139,-0.0043,-0.003,-0.0098,-0.009,-0.0156,-0.0154,-0.0153,-0.0152,0,0.0343,0.038,0.0467,0.0543,0.0577,0.0629,0.0705,0.0728,0.0703,0.0705,0.0688,0.0577,0.0436,0.0277,0.0063,-0.0025,-0.019,-0.0254,-0.0131,-0.0151,-0.0218,-0.0204,-0.0372,-0.0374,-0.0375,-0.0375,-0.0376,0,0.0375,0.0424,0.0525,0.0569,0.0614,0.0701,0.0755,0.0773,0.0792,0.0743,0.0727,0.059,0.0508,0.0216,0.0038,-0.0215,-0.0246,-0.0335,-0.0286,-0.0233,-0.0248,-0.0231,-0.0216,-0.0378,-0.0378,-0.0378,-0.0379,0,0.0442,0.0467,0.0531,0.0633,0.0702,0.0789,0.086,0.0876,0.0879,0.0857,0.0768,0.0616,0.0441,0.0222,0.0016,-0.0162,-0.0273,-0.0347,-0.0345,-0.03,-0.0242,-0.0251,-0.0235,-0.0382,-0.0382,-0.0382,-0.0381,0,0.0489,0.0536,0.0607,0.0692,0.078,0.0845,0.0887,0.0908,0.0921,0.0857,0.0826,0.0638,0.0523,0.0246,0.0058,-0.0117,-0.0154,-0.0197,-0.0204,-0.0202,-0.0101,0.0002,-0.0112,0,0,0,0,0,0.0542,0.0585,0.0664,0.0745,0.083,0.0875,0.094,0.0957,0.0964,0.0916,0.0871,0.0712,0.043,0.0293,0.0119,0.0031,-0.0192,-0.018,-0.0246,-0.0403,-0.0398,-0.0307,0,0,0,0,0,0,0.0568,0.0644,0.067,0.0777,0.083,0.0925,0.0963,0.096,0.0927,0.09,0.0751,0.0672,0.0392,0.0534,0.0116,0.0058,-0.0006,-0.0318,-0.0321,-0.0405,-0.0401,-0.0398,-0.0303,0,0,0,0,0]}]]